2023/07/24 00:00:00, 0.1,24.0
2023/07/24 00:10:00, 0.0,23.8
2023/07/24 00:20:00, 0.0,23.7
2023/07/24 00:30:00, 0.0,24.1
2023/07/24 00:40:00, 0.0,24.7
2023/07/24 00:50:00, 0.0,24.7
2023/07/24 01:00:00, 0.0,24.7
2023/07/24 01:10:00, 0.1,24.7
2023/07/24 01:20:00, 0.1,24.0
2023/07/24 01:30:00, 0.1,24.7
2023/07/24 01:40:00, 0.0,24.8
2023/07/24 01:50:00, 0.1,23.6
2023/07/24 02:00:00, 0.0,23.3
2023/07/24 02:10:00, 1.1,22.9
2023/07/24 02:20:00,14.2,24.5
2023/07/24 02:30:00,17.9,24.8
2023/07/24 02:40:00,18.0,24.9
2023/07/24 02:50:00,18.1,25.2
2023/07/24 03:00:00,18.1,25.0
2023/07/24 03:10:00,18.5,24.8
2023/07/24 03:20:00,19.3,24.4
2023/07/24 03:30:00,20.1,23.2
2023/07/24 03:40:00,20.8,24.0
2023/07/24 03:50:00,19.7,24.4
2023/07/24 04:00:00, 4.3,23.8
2023/07/24 04:10:00, 0.0,24.5
2023/07/24 04:20:00, 0.0,24.9
2023/07/24 04:30:00, 0.0,24.7
2023/07/24 04:40:00, 0.0,24.7
2023/07/24 04:50:00, 3.4,23.2
2023/07/24 05:00:00,19.9,22.8
2023/07/24 05:10:00,19.1,22.7
2023/07/24 05:20:00,18.3,22.5
2023/07/24 05:30:00,17.9,23.0
2023/07/24 05:40:00,17.7,23.7
2023/07/24 05:50:00,17.7,23.7
2023/07/24 06:00:00,17.6,22.9
2023/07/24 06:10:00,17.7,23.0
2023/07/24 06:20:00,17.7,23.2
2023/07/24 06:30:00,17.6,24.0
2023/07/24 06:40:00,17.4,24.7
2023/07/24 06:50:00,17.1,25.8
2023/07/24 07:00:00,16.8,26.5
2023/07/24 07:10:00,16.5,27.0
2023/07/24 07:20:00,15.9,27.3
2023/07/24 07:30:00,15.8,27.5
2023/07/24 07:40:00,15.7,27.6
2023/07/24 07:50:00,15.5,28.2
2023/07/24 08:00:00,15.7,28.0
2023/07/24 08:10:00,15.7,28.6
2023/07/24 08:20:00,15.6,29.1
2023/07/24 08:30:00,15.6,29.2
2023/07/24 08:40:00,---,29.7
2023/07/24 08:50:00,15.5,29.9
2023/07/24 09:00:00,14.9,30.7
2023/07/24 09:10:00, 0.0,30.8
2023/07/24 09:20:00, 0.0,31.2
2023/07/24 09:30:00, 1.1,31.4
2023/07/24 09:40:00, 0.3,31.4
2023/07/24 09:50:00, 0.3,31.9
2023/07/24 10:00:00,14.9,31.2
2023/07/24 10:10:00,---,31.9
2023/07/24 10:20:00,---,32.5
2023/07/24 10:30:00,---,33.2
2023/07/24 10:40:00,---,32.8
2023/07/24 10:50:00, 0.2,32.8
2023/07/24 11:00:00, 0.1,33.3
2023/07/24 11:10:00, 0.1,33.2
2023/07/24 11:20:00, 0.1,33.2
2023/07/24 11:30:00, 0.1,33.8
2023/07/24 11:40:00, 0.1,33.8
2023/07/24 11:50:00, 0.0,33.8
2023/07/24 12:00:00,---,34.3
2023/07/24 12:10:00,17.9,33.6
2023/07/24 12:20:00,18.3,33.5
2023/07/24 12:30:00,17.6,33.3
2023/07/24 12:40:00,17.1,34.8
2023/07/24 12:50:00,17.0,34.8
2023/07/24 13:00:00,16.7,34.0
2023/07/24 13:10:00,16.8,34.3
2023/07/24 13:20:00,10.0,32.7
2023/07/24 13:30:00, 0.3,33.2
2023/07/24 13:40:00, 6.1,34.1
2023/07/24 13:50:00,14.5,33.9
2023/07/24 14:00:00,15.1,33.7
2023/07/24 14:10:00,15.1,34.9
2023/07/24 14:20:00,15.6,34.2
2023/07/24 14:30:00,15.2,34.1
2023/07/24 14:40:00,15.0,34.4
2023/07/24 14:50:00,15.3,34.3
2023/07/24 15:00:00,15.2,33.9
2023/07/24 15:10:00,15.1,33.2
2023/07/24 15:20:00,15.1,34.1
2023/07/24 15:30:00,15.1,33.9
2023/07/24 15:40:00,15.1,34.8
2023/07/24 15:50:00,14.5,34.1
2023/07/24 16:00:00,14.1,34.3
2023/07/24 16:10:00,14.3,34.9
2023/07/24 16:20:00,14.5,35.2
2023/07/24 16:30:00,14.5,33.6
2023/07/24 16:40:00,14.4,33.4
2023/07/24 16:50:00,14.4,34.1
2023/07/24 17:00:00,13.8,32.9
2023/07/24 17:10:00,13.0,34.3
2023/07/24 17:20:00, 3.5,33.3
2023/07/24 17:30:00, 0.2,32.5
2023/07/24 17:40:00, 0.2,32.8
2023/07/24 17:50:00, 0.2,33.0
2023/07/24 18:00:00, 0.2,31.6
2023/07/24 18:10:00, 0.3,31.0
2023/07/24 18:20:00, 0.2,30.6
2023/07/24 18:30:00, 0.0,30.3
2023/07/24 18:40:00, 0.0,29.9
2023/07/24 18:50:00, 0.0,29.4
2023/07/24 19:00:00, 0.0,29.2
2023/07/24 19:10:00, 0.0,29.0
2023/07/24 19:20:00, 0.0,28.7
2023/07/24 19:30:00, 0.0,28.4
2023/07/24 19:40:00, 0.0,28.1
2023/07/24 19:50:00, 0.0,28.1
2023/07/24 20:00:00, 0.0,27.8
2023/07/24 20:10:00, 0.0,27.7
2023/07/24 20:20:00, 0.0,27.5
2023/07/24 20:30:00, 0.1,27.6
2023/07/24 20:40:00, 0.1,27.3
2023/07/24 20:50:00, 0.0,27.2
2023/07/24 21:00:00, 0.0,27.2
2023/07/24 21:10:00, 0.0,27.2
2023/07/24 21:20:00, 0.0,26.8
2023/07/24 21:30:00, 0.0,26.8
2023/07/24 21:40:00, 0.1,26.9
2023/07/24 21:50:00, 0.1,26.9
2023/07/24 22:00:00, 0.1,26.7
2023/07/24 22:10:00, 0.0,26.5
2023/07/24 22:20:00, 0.0,26.2
2023/07/24 22:30:00, 0.0,24.6
2023/07/24 22:40:00, 0.0,23.7
2023/07/24 22:50:00, 0.0,23.5
2023/07/24 23:00:00, 0.0,23.7
2023/07/24 23:10:00, 0.0,23.6
2023/07/24 23:20:00, 0.0,23.5
2023/07/24 23:30:00, 0.0,23.4
2023/07/24 23:40:00, 0.0,23.3
2023/07/24 23:50:00, 0.0,23.0
